SCP
0 0 0 0 -0 -0 0 0 0 0 0 0 -0 0 0 0 -0 1 1 0 0 0 0 0 0 0 0 0 0 0 0 0 0 0 0 0 0 0 0 0 0 0 0 0
0 0 0 0 0 0 0 0 0 0 0 0 0 0 0 0 0 0 0 -0 -0 -0 0 0 0 0 0 0 0 0 0 0 0 0 0 0 0 0 0 0 0 0 0 0
0 0 0 0 0 0 0 0 0 0 0 0 0 0 0 0 0 -0 0 -0 -0 -0 0 0 0 0 0 0 0 0 0 0 0 0 0 0 0 0 0 0 0 0 0 0
0 0 0 0 0 0 0 0 0 -0 0 0 0 0 0 0 0 0 0 0 0 0 0 0 0 0 0 0 0 0 0 0 0 0 0 0 0 0 0 0 0 0 0 0
0 0 0 0 0 0 0 0 0 0 0 0 0 0 0 0 0 0 0 0 0 0 0 0 0 0 0 0 0 0 0 0 0 0 0 0 0 0 0 0 0 0 0 0
0 0 0 0 0 0 0 0 0 0 0 0 0 0 0 0 0 0 0 0 0 0 0 0 0 0 0 0 0 0 0 0 0 0 0 0 0 0 0 0 0 0 0 0
0 0 0 0 0 0 0 0 0 0 0 0 0 -0 0 0 0 0 0 0 0 0 0 0 0 0 0 0 0 0 0 0 0 0 0 0 0 0 0 0 0 0 0 0
0 0 0 0 0 0 0 0 0 0 0 0 0 0 0 1 0 0 0 0 0 0 0 0 0 0 0 0 0 0 0 0 0 0 0 0 0 0 0 0 0 0 0 0
0 0 0 1 0 0 0 0 0 0 0 0 0 0 0 1 0 0 0 0 0 0 0 0 0 0 0 0 0 0 0 0 0 0 0 0 0 0 0 0 0 0 0 0
0 0 0 0 0 0 0 0 0 0 0 0 0 -0 0 0 0 0 0 0 0 0 0 0 0 0 0 0 0 0 0 0 0 0 0 0 0 0 0 0 0 0 0 0
0 0 0 0 0 0 0 0 0 0 1 2 1 1 0 0 0 0 0 0 0 0 0 0 0 0 0 0 0 0 0 0 0 0 0 0 0 0 0 0 0 0 0 0
0 0 0 0 0 0 -0 0 1 0 0 1 0 0 0 0 0 0 0 0 0 0 0 0 0 0 0 0 0 0 0 0 0 0 0 0 0 0 0 0 0 0 0 0
-0 0 -0 0 -0 0 -0 0 0 0 0 0 0 0 -0 0 0 0 0 0 0 0 0 0 0 0 0 0 0 0 0 0 0 0 0 0 0 0 0 0 0 0 0 0
0 0 0 0 -0 -0 0 0 0 -0 0 0 0 -0 -0 0 0 0 0 0 0 0 0 0 0 0 0 0 0 0 0 0 0 0 0 0 0 0 0 0 0 0 0 0
0 0 0 0 -0 -0 -0 -0 -0 0 0 0 0 0 0 0 0 0 0 0 0 0 0 0 0 0 0 0 0 0 0 0 0 0 0 0 0 0 0 0 0 0 0 0
0 0 0 -0 -0 -0 -0 0 0 0 0 0 0 0 0 0 0 0 0 0 0 0 0 0 0 0 0 0 0 0 0 0 0 0 0 0 0 0 0 0 0 0 0 0
0 0 0 0 0 0 0 0 0 0 0 0 0 0 0 0 0 0 0 0 0 0 0 0 0 0 0 0 0 0 0 0 0 0 0 0 0 0 0 0 0 0 0 0
0 0 0 0 0 0 0 0 0 0 0 0 0 0 0 0 0 0 0 0 0 0 0 0 0 0 0 0 0 0 0 0 0 0 0 0 0 0 0 0 0 0 0 0
0 0 0 0 0 0 0 0 0 0 0 0 0 0 0 0 0 0 0 0 0 0 0 0 0 0 0 0 0 0 0 0 0 0 0 0 0 0 0 0 0 0 0 0
0 0 0 0 0 -0 0 0 0 0 0 0 0 0 0 0 0 0 0 0 0 0 0 0 0 0 0 0 0 0 0 0 0 0 0 0 0 0 0 0 0 0 0 0
0 0 0 0 0 0 0 0 0 0 0 0 0 0 0 0 0 0 0 0 0 0 0 0 0 0 0 0 0 0 0 0 0 0 0 0 0 0 0 0 0 0 0 0
0 0 0 0 0 0 0 0 0 0 0 0 0 0 0 0 0 0 0 0 0 0 0 0 0 0 0 0 0 0 0 0 0 0 0 0 0 0 0 0 0 0 0 0
-0 0 0 0 0 0 0 0 0 0 0 0 0 0 0 0 0 0 0 0 0 0 0 0 0 0 0 0 0 0 0 0 0 0 0 0 0 0 0 0 0 0 0 0
0 0 0 0 0 0 0 0 0 0 0 0 0 0 0 0 0 0 0 0 0 0 0 0 0 0 0 0 0 0 0 0 0 0 0 0 0 0 0 0 0 0 0 0
0 0 0 0 0 0 0 0 0 0 0 0 0 0 0 0 0 0 0 0 0 0 0 0 0 0 0 0 0 0 0 0 0 0 0 0 0 0 0 0 0 0 0 0
0 0 0 0 0 0 0 0 0 0 0 0 0 0 0 0 0 0 0 0 0 0 0 0 0 0 0 0 0 0 0 0 0 0 0 0 0 0 0 0 0 0 0 0
0 0 0 0 0 0 0 0 0 0 0 0 0 0 0 0 0 0 0 0 0 0 0 0 0 0 0 0 0 0 0 0 0 0 0 0 0 0 0 0 0 0 0 0
Wind_Speed_500mb
14 5 9 12 8 8 13 10 12 13 20 24 37 34 44 48 57 70 71 70 67 64 57 48 45 46 45 38 31 25 16 12 12 14 14 14 16 20 20 18 17 18 20 19
6 6 4 8 7 4 9 6 13 3 14 8 21 43 44 54 57 68 75 74 69 61 59 55 53 52 46 37 28 19 13 13 12 15 14 14 15 16 15 15 14 8 3 9
5 6 11 7 9 7 5 4 7 12 19 13 14 25 50 61 67 72 80 79 74 70 64 57 58 51 45 35 26 21 14 13 13 15 17 19 17 13 10 10 11 7 7 7
3 7 0 10 7 1 7 4 13 19 12 16 9 12 51 69 84 74 83 80 75 69 65 61 54 45 41 33 25 23 18 17 16 14 15 17 17 14 12 10 12 16 13 12
7 5 6 8 11 10 6 7 5 10 5 18 19 16 16 45 59 59 62 57 60 51 58 55 50 44 40 34 31 29 22 19 17 17 18 17 15 14 12 12 16 15 17 19
5 6 11 10 12 18 8 9 11 15 15 6 6 4 3 14 34 20 33 41 31 11 53 58 53 47 38 33 30 25 19 18 16 18 19 18 15 11 11 13 11 11 18 21
5 5 11 9 21 13 6 12 31 17 13 5 4 7 12 19 15 44 32 24 29 41 67 64 59 50 37 34 31 22 23 21 16 18 15 14 14 13 13 10 11 12 15 16
3 8 10 2 7 15 6 12 23 16 14 8 16 12 11 14 17 37 51 41 23 54 60 65 61 49 38 32 23 23 23 19 18 17 14 10 10 9 11 10 8 14 17 19
13 8 5 9 9 3 11 6 12 8 7 12 5 10 15 19 18 25 40 43 44 39 42 62 56 46 35 22 28 23 21 20 21 17 15 10 7 9 7 10 14 13 16 21
4 8 4 9 16 17 8 14 14 9 10 0 16 20 10 19 23 32 31 35 33 39 52 52 45 33 22 26 20 20 20 24 22 18 13 17 12 9 12 8 10 13 15 18
8 12 6 28 29 24 22 12 23 18 17 6 8 9 12 23 25 30 36 35 33 35 35 37 31 23 18 14 14 20 22 24 21 19 17 19 17 15 19 15 15 15 17 19
10 15 13 20 36 31 41 43 36 28 17 5 3 21 13 27 28 25 26 29 32 32 32 24 20 10 9 13 17 20 20 21 22 23 20 23 22 21 23 20 18 17 19 19
9 12 15 6 10 28 40 43 36 22 9 24 12 14 36 31 24 16 13 10 10 13 16 16 14 12 14 18 17 13 15 19 21 28 25 22 24 22 20 19 18 21 21 21
15 13 7 11 9 12 33 21 8 10 20 34 34 48 39 23 18 11 10 15 22 20 12 10 11 11 14 14 12 11 14 19 20 21 25 30 29 29 24 23 24 25 26 24
3 19 14 15 14 27 20 17 26 5 31 46 51 42 28 25 20 14 13 15 12 5 7 10 11 6 12 13 14 17 18 20 23 23 23 25 24 21 25 25 29 30 26 27
14 13 19 31 27 25 26 28 25 47 53 51 42 32 20 14 9 7 6 8 9 8 8 9 9 7 12 15 18 23 25 24 26 26 23 26 31 29 29 33 34 32 37 33
13 2 13 23 26 23 32 40 48 56 45 28 27 25 14 9 5 7 9 7 13 16 17 18 16 16 20 17 22 27 27 28 30 31 30 27 33 34 31 30 28 29 33 34
16 10 14 30 41 44 50 51 43 40 41 37 21 19 13 9 14 14 17 19 22 24 23 25 23 25 31 35 39 40 42 42 43 42 38 37 37 36 36 36 35 38 38 38
30 31 29 33 35 44 50 44 38 30 21 19 22 9 4 9 6 3 11 18 21 27 30 37 40 38 48 49 43 50 54 56 55 54 53 51 44 43 42 45 46 46 47 49
31 32 31 38 35 17 29 32 28 22 16 11 11 10 8 11 8 2 5 1 7 11 15 18 22 28 29 30 34 40 38 40 41 40 42 41 48 49 49 50 54 54 54 58
42 37 37 42 44 37 31 27 25 24 22 21 16 14 9 7 2 3 5 7 3 4 10 16 21 21 21 23 29 29 32 32 35 38 38 39 41 43 46 49 48 49 53 54
34 35 36 35 36 36 30 25 22 21 19 19 17 11 9 7 5 3 4 6 9 16 22 27 30 28 28 29 31 35 35 39 39 41 44 47 50 53 55 54 56 56 57 56
29 31 33 32 31 36 33 27 25 21 21 16 10 5 3 2 5 11 17 21 23 26 31 36 41 46 46 43 40 39 38 36 35 33 34 34 34 40 44 47 48 48 50 53
37 38 34 30 28 25 26 24 17 15 13 10 7 2 5 10 16 20 25 32 38 43 46 49 49 48 46 38 29 27 25 25 23 25 29 29 29 32 30 30 30 31 37 45
35 34 29 24 23 27 21 15 10 9 5 6 8 11 16 20 23 25 26 27 30 30 28 29 29 27 25 25 27 31 35 39 42 47 53 56 53 54 57 57 58 62 63 61
25 23 21 16 15 11 8 5 6 8 11 12 14 17 20 22 22 21 21 21 22 24 25 29 33 33 32 32 32 32 33 35 39 39 41 44 47 49 51 53 56 60 66 72
20 13 11 14 13 13 14 16 14 14 15 16 17 22 25 28 31 31 29 28 29 31 32 34 35 38 38 39 37 33 32 34 36 40 43 46 48 50 53 56 58 59 60 61
Wind_Direction_500mb
225 207 199 217 233 151 179 204 169 236 198 224 199 197 188 185 183 186 187 188 191 190 192 190 181 178 181 180 178 183 185 222 261 293 296 292 293 297 291 279 272 267 273 280
145 178 163 275 295 117 206 154 285 219 245 275 154 172 176 181 178 184 191 196 195 195 193 190 186 185 189 188 181 190 191 231 267 298 305 301 300 301 292 283 284 247 296 333
222 13 54 353 330 322 322 3 139 185 233 150 131 160 186 187 195 189 196 198 197 200 202 201 194 193 195 194 188 197 213 244 275 303 310 308 307 304 296 291 289 265 278 265
169 45 128 243 295 97 128 75 305 277 240 141 76 156 194 197 193 194 201 204 205 204 205 203 200 197 200 204 207 210 224 249 266 290 300 301 300 299 293 299 290 256 235 241
120 146 272 10 351 348 6 289 315 302 20 51 104 156 196 200 202 209 207 207 203 206 213 212 207 203 211 217 220 231 234 250 268 295 304 294 288 284 289 295 307 238 243 257
88 115 198 235 283 314 252 336 336 26 5 45 66 92 140 143 211 187 187 185 171 280 242 228 215 213 217 222 227 237 251 260 269 293 299 292 282 273 273 290 273 234 246 261
135 144 278 238 287 340 127 245 324 332 306 254 57 250 319 301 240 204 183 167 216 211 228 229 222 222 219 225 231 244 250 253 266 289 290 281 268 264 256 250 229 273 287 289
110 116 246 124 309 144 174 344 327 313 301 284 316 265 261 300 264 202 207 200 214 209 227 224 218 221 222 224 238 258 255 259 281 281 276 257 257 256 217 225 249 303 314 313
181 231 244 138 186 129 70 72 37 47 313 308 353 236 259 230 212 204 207 209 220 223 216 212 209 215 217 239 259 248 243 263 280 271 260 244 234 223 227 264 254 300 318 327
38 263 278 229 249 186 161 80 103 111 105 128 309 327 213 185 178 188 199 214 210 202 197 196 199 204 234 247 245 240 253 273 276 268 241 219 224 225 233 255 269 284 301 320
266 298 254 237 234 208 174 148 158 148 133 88 2 15 242 171 174 174 181 182 191 199 210 204 198 215 229 241 245 256 267 279 268 249 226 217 232 234 246 253 269 278 288 296
222 234 199 232 210 195 195 183 158 160 182 177 100 148 144 152 152 159 172 185 188 189 190 191 186 201 258 275 283 279 282 275 256 238 245 248 241 255 263 252 259 280 278 282
312 191 223 272 283 198 205 166 152 158 204 200 145 168 174 135 131 136 144 159 188 201 192 202 226 253 269 282 275 273 284 277 264 251 248 247 249 262 257 261 268 284 289 283
282 130 178 175 183 128 163 163 167 281 199 187 166 198 186 129 132 150 168 176 189 195 217 249 256 279 286 282 280 292 293 289 285 276 259 252 261 263 264 270 273 285 285 267
289 264 291 243 248 253 256 278 301 253 178 174 171 174 162 142 154 157 151 154 165 199 262 262 276 286 275 290 309 305 295 291 291 293 285 257 259 262 261 275 270 279 273 274
1 319 257 243 258 265 227 244 186 163 168 166 167 163 109 96 131 165 193 223 237 252 260 266 279 289 279 294 304 296 291 292 290 292 284 261 256 261 269 277 282 284 268 272
285 234 169 188 217 200 180 179 167 161 164 164 160 162 154 153 177 201 232 256 276 284 294 290 301 297 287 295 288 287 290 291 284 284 286 278 261 262 273 281 279 278 270 272
74 179 176 160 156 171 168 168 172 172 166 162 169 165 163 198 205 213 234 246 248 256 265 269 277 282 285 278 279 285 289 290 292 285 284 281 283 274 267 269 273 277 278 279
105 107 105 103 108 131 141 147 149 155 161 151 149 168 134 99 96 192 235 245 253 267 276 268 266 278 273 273 271 275 281 281 282 288 287 289 279 279 277 272 271 273 277 280
97 107 110 118 120 110 129 128 136 145 143 141 131 111 69 62 74 118 254 279 28 9 341 312 284 270 273 270 275 278 282 285 287 286 287 288 288 287 288 285 279 282 284 279
113 111 109 105 106 112 108 107 115 110 104 99 101 98 96 98 127 175 236 243 328 291 317 316 312 311 306 296 284 278 265 271 272 273 274 277 281 285 289 291 287 284 286 284
123 122 116 115 115 116 120 120 114 115 115 117 119 133 165 181 207 260 324 329 312 307 309 307 305 310 312 303 296 295 292 285 285 282 280 277 276 276 276 277 279 283 286 286
125 130 129 129 127 119 118 113 110 113 111 105 102 88 41 52 306 297 295 306 312 313 313 310 310 310 308 307 300 294 292 291 290 288 286 285 282 279 277 277 281 284 289 286
133 136 128 124 127 132 119 114 115 109 102 105 92 75 298 299 306 313 313 308 307 307 308 308 307 304 303 305 304 296 301 300 302 301 300 296 294 288 291 288 282 284 279 280
134 134 135 138 128 112 109 106 100 86 39 355 338 320 318 318 319 322 323 324 321 322 326 327 330 328 324 320 314 315 312 307 302 297 293 296 299 296 294 292 292 290 289 288
136 128 115 104 95 95 83 58 32 37 11 3 4 15 19 19 12 5 1 359 1 2 1 2 4 7 6 1 352 344 340 335 333 332 328 323 319 315 309 306 304 299 295 293
112 96 93 94 78 45 31 37 43 47 31 35 47 44 38 34 32 31 34 32 29 29 32 34 33 32 25 17 10 2 356 356 356 355 353 349 342 333 323 315 310 307 304 301
Wind_Speed_850mb
14 5 9 12 8 8 13 10 12 13 20 24 37 34 44 48 57 70 71 70 67 64 57 48 45 46 45 38 31 25 16 12 12 14 14 14 16 20 20 18 17 18 20 19
6 6 4 8 7 4 9 6 13 3 14 8 21 43 44 54 57 68 75 74 69 61 59 55 53 52 46 37 28 19 13 13 12 15 14 14 15 16 15 15 14 8 3 9
5 6 11 7 9 7 5 4 7 12 19 13 14 25 50 61 67 72 80 79 74 70 64 57 58 51 45 35 26 21 14 13 13 15 17 19 17 13 10 10 11 7 7 7
3 7 0 10 7 1 7 4 13 19 12 16 9 12 51 69 84 74 83 80 75 69 65 61 54 45 41 33 25 23 18 17 16 14 15 17 17 14 12 10 12 16 13 12
7 5 6 8 11 10 6 7 5 10 5 18 19 16 16 45 59 59 62 57 60 51 58 55 50 44 40 34 31 29 22 19 17 17 18 17 15 14 12 12 16 15 17 19
5 6 11 10 12 18 8 9 11 15 15 6 6 4 3 14 34 20 33 41 31 11 53 58 53 47 38 33 30 25 19 18 16 18 19 18 15 11 11 13 11 11 18 21
5 5 11 9 21 13 6 12 31 17 13 5 4 7 12 19 15 44 32 24 29 41 67 64 59 50 37 34 31 22 23 21 16 18 15 14 14 13 13 10 11 12 15 16
3 8 10 2 7 15 6 12 23 16 14 8 16 12 11 14 17 37 51 41 23 54 60 65 61 49 38 32 23 23 23 19 18 17 14 10 10 9 11 10 8 14 17 19
13 8 5 9 9 3 11 6 12 8 7 12 5 10 15 19 18 25 40 43 44 39 42 62 56 46 35 22 28 23 21 20 21 17 15 10 7 9 7 10 14 13 16 21
4 8 4 9 16 17 8 14 14 9 10 0 16 20 10 19 23 32 31 35 33 39 52 52 45 33 22 26 20 20 20 24 22 18 13 17 12 9 12 8 10 13 15 18
8 12 6 28 29 24 22 12 23 18 17 6 8 9 12 23 25 30 36 35 33 35 35 37 31 23 18 14 14 20 22 24 21 19 17 19 17 15 19 15 15 15 17 19
10 15 13 20 36 31 41 43 36 28 17 5 3 21 13 27 28 25 26 29 32 32 32 24 20 10 9 13 17 20 20 21 22 23 20 23 22 21 23 20 18 17 19 19
9 12 15 6 10 28 40 43 36 22 9 24 12 14 36 31 24 16 13 10 10 13 16 16 14 12 14 18 17 13 15 19 21 28 25 22 24 22 20 19 18 21 21 21
15 13 7 11 9 12 33 21 8 10 20 34 34 48 39 23 18 11 10 15 22 20 12 10 11 11 14 14 12 11 14 19 20 21 25 30 29 29 24 23 24 25 26 24
3 19 14 15 14 27 20 17 26 5 31 46 51 42 28 25 20 14 13 15 12 5 7 10 11 6 12 13 14 17 18 20 23 23 23 25 24 21 25 25 29 30 26 27
14 13 19 31 27 25 26 28 25 47 53 51 42 32 20 14 9 7 6 8 9 8 8 9 9 7 12 15 18 23 25 24 26 26 23 26 31 29 29 33 34 32 37 33
13 2 13 23 26 23 32 40 48 56 45 28 27 25 14 9 5 7 9 7 13 16 17 18 16 16 20 17 22 27 27 28 30 31 30 27 33 34 31 30 28 29 33 34
16 10 14 30 41 44 50 51 43 40 41 37 21 19 13 9 14 14 17 19 22 24 23 25 23 25 31 35 39 40 42 42 43 42 38 37 37 36 36 36 35 38 38 38
30 31 29 33 35 44 50 44 38 30 21 19 22 9 4 9 6 3 11 18 21 27 30 37 40 38 48 49 43 50 54 56 55 54 53 51 44 43 42 45 46 46 47 49
31 32 31 38 35 17 29 32 28 22 16 11 11 10 8 11 8 2 5 1 7 11 15 18 22 28 29 30 34 40 38 40 41 40 42 41 48 49 49 50 54 54 54 58
42 37 37 42 44 37 31 27 25 24 22 21 16 14 9 7 2 3 5 7 3 4 10 16 21 21 21 23 29 29 32 32 35 38 38 39 41 43 46 49 48 49 53 54
34 35 36 35 36 36 30 25 22 21 19 19 17 11 9 7 5 3 4 6 9 16 22 27 30 28 28 29 31 35 35 39 39 41 44 47 50 53 55 54 56 56 57 56
29 31 33 32 31 36 33 27 25 21 21 16 10 5 3 2 5 11 17 21 23 26 31 36 41 46 46 43 40 39 38 36 35 33 34 34 34 40 44 47 48 48 50 53
37 38 34 30 28 25 26 24 17 15 13 10 7 2 5 10 16 20 25 32 38 43 46 49 49 48 46 38 29 27 25 25 23 25 29 29 29 32 30 30 30 31 37 45
35 34 29 24 23 27 21 15 10 9 5 6 8 11 16 20 23 25 26 27 30 30 28 29 29 27 25 25 27 31 35 39 42 47 53 56 53 54 57 57 58 62 63 61
25 23 21 16 15 11 8 5 6 8 11 12 14 17 20 22 22 21 21 21 22 24 25 29 33 33 32 32 32 32 33 35 39 39 41 44 47 49 51 53 56 60 66 72
20 13 11 14 13 13 14 16 14 14 15 16 17 22 25 28 31 31 29 28 29 31 32 34 35 38 38 39 37 33 32 34 36 40 43 46 48 50 53 56 58 59 60 61
Wind_Direction_850mb
225 207 199 217 233 151 179 204 169 236 198 224 199 197 188 185 183 186 187 188 191 190 192 190 181 178 181 180 178 183 185 222 261 293 296 292 293 297 291 279 272 267 273 280
145 178 163 275 295 117 206 154 285 219 245 275 154 172 176 181 178 184 191 196 195 195 193 190 186 185 189 188 181 190 191 231 267 298 305 301 300 301 292 283 284 247 296 333
222 13 54 353 330 322 322 3 139 185 233 150 131 160 186 187 195 189 196 198 197 200 202 201 194 193 195 194 188 197 213 244 275 303 310 308 307 304 296 291 289 265 278 265
169 45 128 243 295 97 128 75 305 277 240 141 76 156 194 197 193 194 201 204 205 204 205 203 200 197 200 204 207 210 224 249 266 290 300 301 300 299 293 299 290 256 235 241
120 146 272 10 351 348 6 289 315 302 20 51 104 156 196 200 202 209 207 207 203 206 213 212 207 203 211 217 220 231 234 250 268 295 304 294 288 284 289 295 307 238 243 257
88 115 198 235 283 314 252 336 336 26 5 45 66 92 140 143 211 187 187 185 171 280 242 228 215 213 217 222 227 237 251 260 269 293 299 292 282 273 273 290 273 234 246 261
135 144 278 238 287 340 127 245 324 332 306 254 57 250 319 301 240 204 183 167 216 211 228 229 222 222 219 225 231 244 250 253 266 289 290 281 268 264 256 250 229 273 287 289
110 116 246 124 309 144 174 344 327 313 301 284 316 265 261 300 264 202 207 200 214 209 227 224 218 221 222 224 238 258 255 259 281 281 276 257 257 256 217 225 249 303 314 313
181 231 244 138 186 129 70 72 37 47 313 308 353 236 259 230 212 204 207 209 220 223 216 212 209 215 217 239 259 248 243 263 280 271 260 244 234 223 227 264 254 300 318 327
38 263 278 229 249 186 161 80 103 111 105 128 309 327 213 185 178 188 199 214 210 202 197 196 199 204 234 247 245 240 253 273 276 268 241 219 224 225 233 255 269 284 301 320
266 298 254 237 234 208 174 148 158 148 133 88 2 15 242 171 174 174 181 182 191 199 210 204 198 215 229 241 245 256 267 279 268 249 226 217 232 234 246 253 269 278 288 296
222 234 199 232 210 195 195 183 158 160 182 177 100 148 144 152 152 159 172 185 188 189 190 191 186 201 258 275 283 279 282 275 256 238 245 248 241 255 263 252 259 280 278 282
312 191 223 272 283 198 205 166 152 158 204 200 145 168 174 135 131 136 144 159 188 201 192 202 226 253 269 282 275 273 284 277 264 251 248 247 249 262 257 261 268 284 289 283
282 130 178 175 183 128 163 163 167 281 199 187 166 198 186 129 132 150 168 176 189 195 217 249 256 279 286 282 280 292 293 289 285 276 259 252 261 263 264 270 273 285 285 267
289 264 291 243 248 253 256 278 301 253 178 174 171 174 162 142 154 157 151 154 165 199 262 262 276 286 275 290 309 305 295 291 291 293 285 257 259 262 261 275 270 279 273 274
1 319 257 243 258 265 227 244 186 163 168 166 167 163 109 96 131 165 193 223 237 252 260 266 279 289 279 294 304 296 291 292 290 292 284 261 256 261 269 277 282 284 268 272
285 234 169 188 217 200 180 179 167 161 164 164 160 162 154 153 177 201 232 256 276 284 294 290 301 297 287 295 288 287 290 291 284 284 286 278 261 262 273 281 279 278 270 272
74 179 176 160 156 171 168 168 172 172 166 162 169 165 163 198 205 213 234 246 248 256 265 269 277 282 285 278 279 285 289 290 292 285 284 281 283 274 267 269 273 277 278 279
105 107 105 103 108 131 141 147 149 155 161 151 149 168 134 99 96 192 235 245 253 267 276 268 266 278 273 273 271 275 281 281 282 288 287 289 279 279 277 272 271 273 277 280
97 107 110 118 120 110 129 128 136 145 143 141 131 111 69 62 74 118 254 279 28 9 341 312 284 270 273 270 275 278 282 285 287 286 287 288 288 287 288 285 279 282 284 279
113 111 109 105 106 112 108 107 115 110 104 99 101 98 96 98 127 175 236 243 328 291 317 316 312 311 306 296 284 278 265 271 272 273 274 277 281 285 289 291 287 284 286 284
123 122 116 115 115 116 120 120 114 115 115 117 119 133 165 181 207 260 324 329 312 307 309 307 305 310 312 303 296 295 292 285 285 282 280 277 276 276 276 277 279 283 286 286
125 130 129 129 127 119 118 113 110 113 111 105 102 88 41 52 306 297 295 306 312 313 313 310 310 310 308 307 300 294 292 291 290 288 286 285 282 279 277 277 281 284 289 286
133 136 128 124 127 132 119 114 115 109 102 105 92 75 298 299 306 313 313 308 307 307 308 308 307 304 303 305 304 296 301 300 302 301 300 296 294 288 291 288 282 284 279 280
134 134 135 138 128 112 109 106 100 86 39 355 338 320 318 318 319 322 323 324 321 322 326 327 330 328 324 320 314 315 312 307 302 297 293 296 299 296 294 292 292 290 289 288
136 128 115 104 95 95 83 58 32 37 11 3 4 15 19 19 12 5 1 359 1 2 1 2 4 7 6 1 352 344 340 335 333 332 328 323 319 315 309 306 304 299 295 293
112 96 93 94 78 45 31 37 43 47 31 35 47 44 38 34 32 31 34 32 29 29 32 34 33 32 25 17 10 2 356 356 356 355 353 349 342 333 323 315 310 307 304 301